sat.trackr.live / text

‹ back to catalog

2024-205J

NORAD 61902 · 2024-205J

PAYLOAD ACTIVE UNKNOWN

§ Identity

Operator
Country
PRC
Launch date
2024-11-11
Launch site
JSC
Launch vehicle
Mass (kg)
RCS (m²)

External: N2YO · Heavens-Above · Gunter

§ Orbital elements

Epoch: 2026-09-22T23:39:58.195008Z

Period
95.16 min
Inclination
97.4059°
Eccentricity
0.0013004
Mean motion
15.13191123 rev/d
Perigee alt
517.5 km
Apogee alt
535.5 km
Semi-major
6,904.6 km
B*
2.6770e-4
RAAN
333.5628°
Arg perigee
184.8138°
Mean anomaly
175.2970°
Rev number
10,297

§ Raw data

2024-205J1 61902U 24205J   26265.98609022  .00004696  00000+0  26770-3 0  99972 61902  97.4059 333.5628 0013004 184.8138 175.2970 15.13191123102972

JSON: /api/v1/satellites/61902 · /tle

For live sub-satellite position, see the globe view (requires WebGL).

§ Visibility from observer

Set your observer location to see the next 7 days of passes ≥ 10°. The values pass through the URL so the page stays shareable.

No JS? Fill the form by hand. The geolocation button needs JavaScript.